Regional Weather Roundup
Issued by NWS

Home | Current Version | Previous Version | Text Only | Print | Product List | Glossary Off
Versions: 1 2 3 4 5 6 7 8 9 10 11 12 13 14 15 16 17 18 19 20 21 22 23 24 25 26 27 28 29 30 31 32 33 34 35 36 37 38 39 40 41 42 43 44 45 46 47 48 49 50

930
ASUS44 KJAN 281903
RWRMS

MISSISSIPPI HOURLY WEATHER ROUNDUP
NATIONAL WEATHER SERVICE JACKSON MS
100 PM CST FRI NOV 28 2014

NOTE: "FAIR: INDICATES FEW OR NO CLOUDS BELOW 12,000 FEET WITH NO
SIGNIFICANT WEATHER AND/OR OBSTRUCTIONS TO VISIBILITY.

MSZ001>002-007>008-010>013-018>021-025>028-034>036-282000-
NORTHWEST MISSISSIPPI

CITY           SKY/WX    TMP DP  RH WIND       PRES   REMARKS
CLARKSDALE     FAIR      50  32  50 S16       30.28F
CLEVELAND      FAIR      51  38  60 S15       30.28F
GREENWOOD      SUNNY     57  23  26 S12       30.30F
GREENVILLE     SUNNY     54  33  45 S14       30.28F
GRENADA        FAIR      54  27  35 S6        30.30F
OLIVE BRANCH   SUNNY     50  28  43 S13G21    30.26F
OXFORD         FAIR      50  25  37 S6        30.29F
TUNICA         CLEAR     52  32  46 S16       30.28F
$$

MSZ003>006-009-014>017-022>024-029>033-037>039-282000-
NORTHEAST MISSISSIPPI

CITY           SKY/WX    TMP DP  RH WIND       PRES   REMARKS
COLUMBUS AFB   SUNNY     51  23  33 VRB6      30.34F
CORINTH        FAIR      50  27  40 S9G17     30.28F
GOLDN TRIANGLE SUNNY     48  27  43 S7        30.34F
STARKVILLE     FAIR      50  28  43 SE6       30.33F
TUPELO         SUNNY     48  27  44 MISG      30.32F
$$

MSZ040-058-282000-
CENTRAL MISSISSIPPI

CITY           SKY/WX    TMP DP  RH WIND       PRES   REMARKS
JACKSON INTL   SUNNY     56  23  27 SE8       30.32F
JACKSON HAWKNS SUNNY     56  23  27 VRB6      30.32F
MERIDIAN KEY   SUNNY     54  22  28 SE5       30.34F
MERIDIAN NAS   SUNNY     53  21  28 VRB5      30.35F
RAYMOND        FAIR      57  52  82 SE6       30.32F
VICKSBURG      SUNNY     59  25  27 S8        30.31F
$$

MSZ059>079-282000-
SOUTH MISSISSIPPI

CITY           SKY/WX    TMP DP  RH WIND       PRES   REMARKS
BROOKHAVEN     FAIR      57  28  33 SE8       30.34F
HATTIESBURG    SUNNY     56  24  29 VRB5      30.36F
MCCOMB         SUNNY     56  26  31 VRB5      30.33F
NATCHEZ        SUNNY     61  27  27 S9        30.31F
PINE BELT      SUNNY     55  25  30 S3        30.36F
$$

MSZ080>082-282000-
COASTAL MISSISSIPPI

CITY           SKY/WX    TMP DP  RH WIND       PRES   REMARKS
BAY ST LOUIS   SUNNY     57  21  24 E6        30.35F
BILOXI         SUNNY     54  35  48 S6        30.35F
PASCAGOULA     SUNNY     58  26  29 CALM      30.35F
GULFPORT       SUNNY     54  33  45 SE6       30.35F
$$



USA.gov is the U.S. government's official web portal to all federal, state and local government web resources and services.